RH
66 69 75 80 83 83 82 83 86 90 95 99 101 103 103 102 102 103 103 102 102 101 101 101 100 100 100 100 101 103 104 103 99 94 91 88 85 83 80 76 73 71 69 68 65 62 59 55 53 51 49 48 47 46 45 44 43 42 41 41 41 40 40 39 38 38 37 36 35 35 34 33 33 32 31 31 30 29 29 28 28 27 26 26 26
67 72 78 83 86 86 85 85 89 93 98 101 104 106 106 104 103 103 103 102 103 102 101 102 102 101 102 101 101 102 100 97 94 93 92 90 88 85 81 77 73 70 68 66 63 60 57 54 51 49 48 46 45 44 44 43 42 42 41 40 40 39 39 38 38 38 38 37 37 37 36 36 35 34 33 32 31 30 29 27 26 25 23 22 21
62 67 75 82 84 87 88 89 92 96 99 102 105 107 108 107 104 103 103 103 105 106 105 105 104 102 101 99 98 97 96 95 95 93 92 90 88 85 80 77 73 69 66 63 61 58 55 52 50 48 46 45 44 43 42 41 41 41 40 40 41 41 41 42 42 42 42 42 41 40 38 36 34 32 30 28 26 24 23 21 20 19 17 16 15
54 58 66 73 80 87 93 95 96 99 101 103 105 106 106 107 105 104 104 105 106 106 104 102 100 98 96 95 94 94 95 96 95 94 91 88 85 82 78 75 71 68 66 63 60 57 54 51 48 46 45 44 43 43 43 44 45 46 46 47 47 47 47 46 45 43 42 40 37 35 32 30 27 25 23 21 20 18 17 17 16 15 14 13 13
52 56 62 69 77 86 93 97 99 101 102 102 102 103 103 105 105 105 103 101 99 99 97 96 94 93 91 91 92 93 94 94 94 92 90 86 83 79 76 73 70 67 65 62 59 56 53 51 50 50 51 51 51 51 52 52 51 51 50 48 46 44 42 41 38 36 35 33 31 29 27 25 23 22 20 19 18 18 17 17 16 16 16 16 16
60 65 67 70 74 79 85 91 96 99 101 102 102 102 103 104 104 103 99 96 95 94 93 92 90 90 89 89 89 90 90 89 88 87 85 83 80 76 73 71 69 67 65 64 63 61 61 61 61 61 60 59 56 54 51 49 46 44 42 40 38 37 36 35 35 34 34 33 32 30 28 26 25 24 23 22 21 20 20 19 19 18 18 18 18
75 77 77 77 77 79 83 88 94 98 100 102 103 103 103 103 102 100 98 95 93 91 90 89 87 86 86 85 85 86 86 86 86 85 84 82 79 76 75 73 72 72 71 70 69 66 64 63 61 59 56 52 48 45 43 42 40 39 38 38 37 37 37 37 37 37 36 35 33 32 30 29 28 27 25 24 23 22 21 21 20 19 19 18 18
82 83 83 84 86 89 92 95 100 103 104 105 107 107 106 105 104 103 102 100 97 96 95 93 91 90 90 90 90 90 91 91 90 90 88 85 82 80 78 76 73 71 68 65 62 59 58 57 55 53 51 49 47 46 45 45 44 44 43 42 42 42 41 40 39 38 36 34 33 31 30 29 28 27 25 24 23 22 21 20 19 18 17 17 17
71 76 80 83 85 89 93 97 100 103 105 108 110 111 111 111 111 109 107 106 105 106 106 103 100 99 98 98 97 95 95 94 92 89 85 80 76 73 70 68 65 64 62 61 60 59 59 59 58 57 56 55 54 53 53 52 51 50 49 48 46 44 42 40 38 36 34 33 32 30 30 28 27 26 24 23 22 20 19 18 18 18 18 18 18
55 60 65 70 73 78 82 85 89 91 94 98 101 104 106 106 105 103 102 101 101 102 102 99 98 97 95 94 91 89 87 85 83 79 75 71 68 67 67 68 69 70 69 68 67 66 66 65 64 63 62 61 60 59 58 57 56 54 51 48 45 42 40 38 36 35 33 32 31 30 29 27 26 25 24 22 21 20 19 19 19 19 19 20 20
52 54 58 61 64 67 68 69 70 71 73 76 79 81 83 83 84 84 85 86 86 86 87 87 88 88 87 87 85 84 83 82 81 79 76 74 73 75 77 78 78 77 75 73 71 71 70 70 68 67 66 66 65 64 62 59 56 52 48 44 41 39 38 37 36 34 33 31 30 29 28 27 26 25 24 22 22 21 20 20 20 20 20 20 20
57 58 61 64 67 67 66 66 66 66 67 68 69 70 73 76 80 81 83 84 86 88 89 90 90 90 90 90 90 90 90 89 88 86 82 81 80 81 81 82 81 79 77 76 75 74 74 74 73 73 72 71 68 64 60 55 51 47 43 41 39 38 38 37 35 34 32 32 31 30 29 28 27 26 25 24 23 22 22 21 20 20 19 19 18
61 61 63 66 69 70 71 72 75 76 78 79 79 81 85 90 93 94 96 97 98 98 98 97 96 95 95 96 96 96 94 92 89 86 84 83 82 82 83 84 84 82 81 80 79 79 79 78 77 75 73 69 64 58 53 49 46 44 42 41 40 39 38 37 36 35 34 34 34 33 31 29 28 27 25 24 23 22 21 20 19 18 17 16 15
63 63 64 65 66 67 70 74 77 80 83 85 87 89 91 95 97 99 101 102 101 102 101 100 100 99 98 98 98 97 94 91 89 87 86 85 84 86 88 89 88 87 86 85 83 81 79 77 74 71 66 61 55 51 48 46 45 44 42 41 40 39 38 38 38 38 37 36 35 34 31 29 27 25 24 22 21 20 19 17 16 15 14 14 13
64 65 65 65 65 66 68 70 72 74 78 82 86 89 91 93 96 99 101 102 103 103 102 101 99 97 96 95 95 95 94 93 92 91 90 89 90 92 93 92 91 90 88 85 81 78 74 71 67 63 58 53 50 48 46 45 44 43 42 40 40 40 40 40 40 40 39 37 35 33 30 28 25 23 21 20 18 17 16 15 14 13 12 12 11
70 70 69 68 69 70 71 72 72 74 77 80 84 87 89 92 94 97 99 100 100 99 98 98 97 97 98 98 99 100 101 101 101 100 99 99 98 97 95 93 91 89 85 81 76 72 68 64 60 57 53 50 48 46 45 44 44 43 42 42 43 44 44 44 43 41 39 36 34 31 28 25 23 20 18 17 16 15 14 13 12 11 11 10 9
80 78 75 74 74 74 74 75 75 76 77 79 81 83 85 88 91 94 96 97 98 99 99 100 102 103 105 106 106 108 109 110 109 107 105 103 101 97 94 91 88 84 80 75 71 66 63 59 57 54 51 48 46 45 45 44 45 45 45 46 47 48 47 44 42 39 36 34 32 28 26 23 20 18 16 15 14 13 12 12 11 10 9 8 7
94 90 86 84 81 79 77 76 75 76 76 77 79 81 84 87 90 92 95 96 97 99 99 100 101 103 103 104 104 104 104 104 103 101 98 95 92 88 85 82 79 75 71 67 63 61 58 56 54 52 50 48 47 47 47 47 48 49 50 50 49 48 46 43 41 38 35 32 29 26 23 21 19 17 15 14 13 12 11 11 9 8 8 7 7
108 105 101 97 94 90 87 84 81 79 78 78 78 79 81 84 86 88 90 92 93 92 91 91 91 91 91 92 92 91 91 90 89 87 85 82 79 77 74 72 69 66 63 61 58 56 54 53 52 52 51 50 49 50 51 51 53 53 52 50 49 47 45 43 40 37 34 31 28 25 22 20 18 16 14 13 12 11 10 9 8 7 7 7 8
114 114 114 112 109 106 103 99 96 92 90 87 85 83 81 80 80 81 81 82 81 80 79 78 78 78 78 78 79 78 78 78 77 76 75 73 71 69 67 66 64 61 59 58 56 55 54 54 54 55 55 55 55 56 55 54 53 52 51 50 50 48 46 43 40 36 32 29 26 23 21 19 17 15 14 13 12 11 9 8 7 8 8 8 9
104 107 110 112 113 114 113 111 110 108 105 102 99 96 92 88 86 84 82 81 79 78 77 75 74 74 74 74 74 74 73 73 72 72 71 70 68 67 65 63 61 59 58 57 57 57 58 59 62 62 62 61 60 59 57 54 52 52 52 52 51 48 46 43 39 35 31 28 25 22 20 18 16 15 14 12 11 9 8 8 8 9 9 9 9
96 97 99 102 105 107 109 109 110 111 111 109 107 104 101 99 96 94 92 90 88 86 84 82 80 79 78 77 76 75 74 74 73 72 71 70 68 66 64 62 61 61 61 61 62 63 65 67 68 66 65 63 61 58 56 54 53 53 54 54 52 48 45 41 37 33 29 26 23 20 18 17 16 15 13 11 10 9 9 10 10 10 10 10 10
96 95 95 97 99 102 104 104 105 107 107 107 106 105 104 104 104 103 102 100 98 96 94 92 90 87 85 83 81 79 78 76 75 74 73 72 70 68 66 65 65 65 66 66 66 67 68 69 68 66 64 63 61 58 56 56 55 55 55 55 52 48 44 40 35 31 26 23 21 19 17 17 16 14 12 10 10 10 10 11 11 11 11 11 10
102 99 98 99 100 101 101 100 100 100 100 101 101 100 101 102 102 102 102 101 100 99 97 96 94 93 91 88 86 83 81 79 78 76 74 74 73 71 69 68 68 68 67 67 66 66 67 67 65 64 63 62 61 59 59 58 58 57 57 55 51 47 41 36 31 27 23 21 19 18 17 16 15 12 11 11 11 12 12 12 12 13 13 12 10
104 103 103 103 102 102 100 98 97 95 93 92 93 93 93 93 92 91 91 91 91 91 90 89 88 88 87 86 83 81 79 77 76 74 73 72 72 71 69 67 66 65 65 64 64 64 65 65 64 63 63 63 62 62 61 60 59 59 57 53 48 42 36 30 26 24 21 19 19 18 17 15 13 11 11 13 14 14 14 13 14 14 13 12 11
98 97 98 99 100 101 101 101 103 102 98 96 95 94 93 92 90 88 87 86 85 84 83 81 80 80 79 79 77 76 74 73 72 71 70 69 68 67 65 64 63 62 62 62 62 63 64 64 63 63 64 64 63 63 62 61 61 60 56 50 42 35 29 25 23 21 20 20 19 18 15 13 12 12 14 15 15 15 15 16 16 15 14 13 12
97 95 95 95 96 96 96 97 100 101 101 102 102 101 99 98 96 93 91 89 88 86 84 82 80 78 77 75 74 72 71 69 68 67 66 65 64 64 63 62 62 62 62 62 62 63 64 64 63 64 64 63 63 63 62 62 61 58 51 42 34 27 23 22 21 20 20 20 18 16 14 12 13 15 16 17 17 17 18 19 18 16 14 13 12
101 98 96 95 94 94 93 92 92 92 93 95 97 95 93 92 91 89 88 86 84 82 81 79 77 75 73 71 69 68 67 66 66 66 67 66 66 66 65 64 63 62 62 62 62 63 63 62 62 63 63 62 62 61 61 61 58 51 41 32 25 22 21 20 20 21 20 19 16 14 13 14 16 18 18 19 20 21 22 21 18 15 13 12 12
102 99 95 93 91 90 90 88 87 87 86 87 87 86 84 83 83 82 82 81 80 79 78 77 76 74 72 70 69 69 70 70 71 72 72 72 71 70 68 65 63 61 60 60 60 60 59 59 61 62 61 60 59 57 57 55 48 38 30 24 21 20 20 20 21 21 19 17 14 13 14 17 19 20 21 22 23 24 22 20 16 14 13 13 14
100 99 97 94 92 90 88 87 85 83 83 83 83 82 81 80 79 79 78 78 77 75 74 73 72 72 71 71 71 71 72 72 72 73 73 72 70 68 65 61 59 57 56 55 55 55 56 58 59 58 56 53 52 50 47 42 34 27 23 21 20 20 20 21 20 19 16 14 14 15 18 20 22 23 24 26 25 23 20 17 15 15 15 15 14
88 90 92 92 90 89 87 86 84 82 81 80 79 78 78 76 75 73 72 70 68 67 67 67 67 68 68 68 67 67 66 66 65 65 66 65 63 61 58 54 52 50 49 49 49 50 51 52 51 48 45 43 41 39 34 29 24 21 20 20 20 20 21 20 18 16 14 14 16 19 22 23 24 25 27 26 23 19 17 16 15 15 15 14 13
64 65 67 68 70 72 73 73 73 71 69 67 65 64 63 62 60 58 56 56 55 56 56 58 58 58 58 57 57 56 56 55 55 55 55 53 51 48 46 44 43 42 40 40 40 40 40 39 37 34 33 32 30 27 24 22 20 20 20 20 20 20 20 18 16 14 15 17 21 25 26 26 27 27 26 24 20 17 16 15 15 15 14 13 13
40 40 40 41 42 45 47 48 48 48 46 45 44 42 41 40 39 38 37 37 36 36 37 37 38 38 38 38 38 37 37 38 38 37 37 36 33 32 31 31 30 29 28 28 28 28 27 26 25 25 25 24 22 21 20 19 19 18 19 19 19 19 17 15 14 15 18 22 26 27 28 29 29 28 24 22 19 18 17 16 15 15 14 15 14
27 27 26 27 27 27 28 28 28 28 28 28 27 27 26 25 25 24 24 23 23 23 23 23 24 24 24 23 22 22 22 22 22 22 22 21 20 19 20 20 20 19 19 20 20 20 20 20 20 20 19 18 18 18 18 17 17 17 18 18 18 17 15 14 15 18 23 27 28 28 29 31 30 27 23 21 20 19 18 17 16 16 16 16 15
26 26 25 25 24 24 24 24 24 24 23 23 23 22 22 21 21 21 21 21 22 22 21 21 20 19 18 17 17 16 16 16 16 16 15 14 14 15 15 16 16 16 17 17 17 17 17 17 17 16 16 16 17 17 16 16 16 17 17 17 16 16 15 17 20 23 27 29 29 30 31 31 29 25 22 21 21 20 19 17 17 17 17 16 16
29 29 29 28 27 26 26 26 25 25 25 25 25 24 24 24 24 25 25 25 25 24 23 21 20 19 18 17 17 16 16 16 16 15 14 13 14 15 15 16 15 15 15 15 15 15 15 15 14 14 15 16 16 15 15 15 15 16 16 16 16 17 18 22 25 28 30 30 30 32 33 31 28 25 24 23 22 20 19 18 17 17 18 19 19
25 25 24 24 23 23 22 22 22 22 22 22 23 22 22 22 22 23 23 23 22 22 21 20 19 18 18 17 17 17 17 16 15 14 13 13 13 14 14 14 14 14 14 13 13 13 13 13 14 15 15 15 15 14 15 15 15 15 15 16 17 20 23 27 29 30 30 31 33 34 32 29 27 26 25 23 21 20 20 19 18 19 20 21 20
16 16 16 16 16 16 16 16 16 16 16 16 17 16 16 17 17 17 18 18 17 17 17 16 16 15 15 15 15 15 14 13 13 12 12 12 13 13 13 13 14 14 13 13 13 13 13 14 15 15 15 15 14 14 15 15 15 15 16 18 21 25 28 30 31 30 31 33 35 34 32 30 29 28 26 23 22 21 20 21 21 21 21 20 22
13 12 12 12 12 12 13 13 13 13 13 13 13 14 14 15 15 15 15 15 14 14 13 13 13 13 12 13 13 12 12 12 11 11 11 12 13 13 13 14 14 14 13 13 13 13 14 15 15 15 14 14 14 15 15 15 15 17 19 23 26 29 31 32 32 32 33 35 35 34 32 31 29 27 25 24 22 21 22 23 24 24 25 26 31
12 12 11 11 11 11 12 11 12 12 12 12 13 13 13 13 13 13 13 13 12 12 12 12 12 12 12 12 12 12 12 11 11 11 12 13 14 14 13 14 14 14 13 14 14 14 15 15 14 14 14 14 15 15 15 16 18 20 24 27 30 32 32 31 32 34 36 37 36 35 34 31 29 27 25 24 23 24 25 26 26 29 35 41 46
12 12 11 11 11 11 11 11 11 11 11 11 12 12 12 12 11 11 11 11 11 11 11 11 11 11 11 11 11 11 11 11 11 12 13 14 14 14 14 14 14 14 14 14 15 15 14 14 14 14 14 15 16 16 16 18 21 24 27 31 34 34 32 32 34 36 37 38 37 36 33 30 28 27 26 25 26 28 28 28 32 41 50 54 54
12 12 12 11 11 11 11 11 11 11 11 11 11 10 11 10 10 10 10 10 10 11 10 11 11 10 10 11 11 10 11 11 11 12 13 14 14 13 14 14 14 14 14 15 15 14 14 14 14 14 15 15 16 17 19 21 23 27 32 35 35 34 34 35 36 37 39 40 38 34 32 30 28 27 27 29 30 30 32 37 46 55 59 58 55
12 12 11 11 11 11 11 11 11 11 11 11 11 11 11 10 10 10 10 10 10 10 10 10 10 10 10 10 10 10 10 10 10 12 13 14 13 13 14 14 14 15 15 15 14 14 15 15 15 15 15 16 17 19 21 24 27 31 35 36 35 35 37 37 37 39 40 39 36 33 31 30 28 29 31 32 33 37 42 51 57 60 59 58 56
12 12 12 12 12 12 11 11 11 11 11 11 11 11 11 11 10 10 10 10 10 10 10 10 10 9 9 9 9 9 10 10 10 12 13 13 12 13 13 14 14 15 15 15 15 15 15 15 15 16 16 18 20 22 23 27 31 35 36 36 36 37 37 38 39 40 39 37 35 33 31 30 30 32 33 36 43 51 57 59 59 58 57 58 58
13 12 12 12 12 12 12 12 12 12 12 11 11 11 11 10 10 10 10 10 10 10 10 10 10 9 9 9 9 9 9 10 11 12 12 12 12 12 13 14 15 15 15 15 16 16 15 15 16 17 18 20 22 23 27 31 35 37 36 36 36 36 37 40 41 39 36 36 35 33 31 32 32 34 38 48 58 64 63 60 58 58 58 58 57
12 12 12 12 12 12 12 12 12 12 12 11 11 11 11 11 11 11 10 11 11 11 11 10 10 10 10 10 10 10 10 10 11 12 12 12 12 12 14 14 14 15 15 16 16 15 16 16 17 18 20 22 23 27 31 35 36 37 37 36 35 36 39 40 38 36 36 36 34 33 33 33 34 41 53 64 68 65 61 61 62 64 63 61 58
12 12 12 12 12 12 12 12 12 12 12 12 12 11 11 11 11 11 11 11 11 11 11 11 10 10 10 10 10 10 11 11 12 12 12 12 12 13 14 14 14 15 16 16 16 16 16 17 18 20 22 23 26 31 35 36 36 37 36 35 37 40 40 38 37 37 37 36 35 34 34 35 42 57 69 70 66 63 64 68 70 71 71 70 69
11 11 11 11 11 11 11 12 12 12 12 12 12 12 12 12 12 12 12 12 11 11 11 11 11 11 11 11 11 11 11 12 13 13 12 12 13 14 14 14 14 15 16 16 17 17 17 18 20 22 24 27 30 34 36 36 36 35 35 37 40 41 39 38 38 38 37 36 36 35 36 45 59 71 71 65 62 66 72 75 76 76 77 81 87
11 11 11 10 10 11 11 11 11 12 11 11 12 12 11 11 11 11 12 12 12 12 12 12 11 11 11 11 11 11 12 13 13 13 13 13 14 14 14 14 15 16 16 17 17 18 18 20 22 24 27 31 34 35 36 36 34 34 37 41 42 40 39 39 40 38 37 37 36 38 47 62 73 72 65 61 66 72 75 76 77 79 84 92 101
10 10 10 10 10 10 10 10 10 11 11 11 11 11 11 11 11 11 11 11 11 11 11 11 11 11 11 11 11 12 12 13 13 13 14 14 15 14 15 15 16 17 17 17 18 19 20 22 24 27 31 34 36 36 35 33 33 36 41 42 41 40 40 40 40 39 38 37 39 49 65 75 73 65 61 66 73 77 78 77 79 82 89 99 107
10 10 10 10 10 10 10 10 10 10 10 10 10 10 10 10 10 10 11 11 11 11 11 11 11 11 11 11 11 12 12 13 13 13 14 15 15 15 16 16 17 17 18 18 20 21 22 24 27 31 34 36 37 36 33 32 35 40 43 41 40 40 41 41 41 40 38 40 52 68 77 73 65 61 65 73 80 81 80 80 83 87 95 104 110
Wind_Speed
73 73 73 74 75 76 76 77 78 79 80 81 82 83 84 86 87 88 89 90 91 91 92 93 94 94 95 96 96 97 97 98 98 98 98 99 99 99 100 100 101 101 102 102 103 104 104 104 104 104 105 105 105 105 106 106 107 107 107 108 109 109 110 110 111 112 112 113 114 115 117 118 118 119 120 121 121 122 123 123 124 125 125 125 126
74 74 74 75 76 77 78 78 79 80 81 82 83 84 85 87 88 89 90 91 92 92 93 94 94 95 95 96 96 97 97 97 97 97 98 98 99 99 100 101 101 102 103 103 104 104 104 105 105 105 105 105 106 106 106 107 107 107 108 108 109 110 110 111 111 112 112 113 114 115 116 117 117 118 119 120 120 121 122 122 123 123 124 124 124
74 74 75 76 77 78 79 80 80 81 82 83 84 85 87 88 89 90 91 91 92 93 93 93 94 94 95 95 95 96 96 96 97 97 97 98 99 100 101 101 102 103 103 104 104 105 105 105 105 106 106 106 106 106 107 107 107 107 107 108 109 109 110 110 111 111 112 113 113 114 114 115 116 117 117 118 118 119 119 119 120 120 120 120 120
75 75 76 77 78 79 80 81 82 82 83 84 85 86 87 88 89 90 91 91 92 93 93 93 94 94 94 94 94 95 95 96 97 98 98 99 100 101 102 102 103 103 104 104 105 105 106 106 106 106 106 106 106 106 106 106 107 107 107 107 108 108 109 110 110 110 111 111 111 112 112 112 113 113 114 114 115 115 115 115 115 115 115 115 115
75 75 76 78 80 81 82 83 84 84 85 86 87 87 88 89 90 91 92 92 93 93 94 94 94 94 94 94 95 95 96 97 98 99 100 101 101 102 103 103 104 104 105 105 106 106 106 106 106 106 106 106 106 106 106 106 106 106 106 106 106 106 107 107 107 106 106 106 106 107 107 108 108 109 109 110 110 111 111 111 111 111 111 111 111
74 74 75 77 79 81 82 84 85 86 87 87 88 89 90 91 92 93 94 94 94 95 95 95 95 95 95 96 96 96 97 98 99 100 101 101 102 103 103 103 103 104 104 105 105 105 105 105 105 105 105 105 105 105 105 104 104 103 103 102 101 101 100 100 100 100 100 101 101 102 103 104 104 105 106 106 107 107 108 108 108 108 108 109 109
75 75 76 77 78 80 81 82 84 85 86 87 88 89 90 91 92 93 94 94 95 95 95 95 95 95 95 95 96 96 97 98 98 99 100 101 101 102 102 102 103 103 104 104 104 104 104 103 103 102 102 101 101 100 99 99 98 97 96 95 94 94 94 94 95 96 96 97 98 99 100 101 102 103 104 104 105 105 106 106 106 107 107 107 107
78 78 79 80 80 81 82 82 84 85 85 86 87 88 89 90 91 91 92 93 93 93 94 94 94 94 95 95 95 96 96 97 98 99 100 101 101 101 101 101 102 102 102 102 101 100 99 98 97 96 95 95 94 93 92 91 90 90 89 89 89 90 91 92 93 94 95 96 97 98 99 100 101 102 103 104 104 105 105 105 105 105 106 106 106
78 79 81 82 82 83 84 85 85 86 87 88 88 89 90 91 91 92 93 93 93 94 94 94 95 95 96 96 97 97 98 98 99 99 100 100 100 99 99 98 97 97 96 95 94 92 91 90 90 89 88 88 87 86 86 85 85 85 86 87 87 89 90 91 92 93 94 95 96 97 98 100 101 102 103 103 103 104 103 103 103 103 103 104 104
72 74 76 78 80 82 83 85 86 87 88 89 90 91 91 92 93 93 94 94 94 94 95 95 95 95 95 95 95 95 95 95 95 95 95 95 94 92 91 90 89 88 88 87 86 85 85 84 84 83 82 82 82 82 82 83 83 84 86 87 88 89 90 91 92 93 94 95 96 97 99 100 100 101 102 102 102 102 101 101 101 101 101 101 102
65 67 69 71 74 76 78 80 82 83 84 86 87 88 89 90 90 91 91 91 91 91 91 91 91 91 90 90 90 89 89 88 88 88 88 87 85 84 83 82 82 82 82 81 81 80 80 79 79 79 79 80 80 81 83 84 85 86 87 88 89 89 90 92 93 93 94 95 96 97 98 99 99 99 100 100 99 99 99 99 99 99 100 100 101
61 63 65 67 69 71 72 74 76 77 78 80 81 82 83 84 84 85 85 85 85 85 85 85 84 84 83 83 82 81 81 81 81 81 80 79 78 77 76 76 77 77 77 77 76 76 77 77 78 79 79 80 82 83 84 85 86 87 88 89 90 90 91 92 92 93 94 94 95 96 97 97 97 97 97 97 97 97 97 97 97 98 98 98 99
58 60 62 64 66 67 68 70 71 72 74 75 76 77 77 78 79 79 79 79 78 78 78 78 77 77 76 76 75 75 75 75 75 75 75 74 73 72 72 73 73 74 74 75 75 76 77 78 79 80 81 83 84 85 86 87 88 88 89 89 90 90 91 91 92 92 92 92 93 94 95 95 95 95 95 95 95 95 95 95 95 95 95 95 96
55 57 59 61 63 65 66 67 68 69 70 71 71 72 72 73 73 73 73 72 72 72 72 71 71 71 71 71 70 71 71 71 71 71 70 70 69 69 70 72 73 74 75 76 77 78 79 80 81 82 84 85 86 87 87 88 88 89 89 89 89 90 90 90 90 90 90 90 91 92 93 93 93 93 93 93 93 92 92 92 92 92 92 92 92
54 55 56 58 59 61 62 64 65 66 66 67 67 67 67 67 67 67 67 67 66 66 66 67 67 67 67 67 67 67 68 68 68 68 68 69 69 70 72 73 74 75 77 78 79 80 81 83 84 85 86 87 88 88 88 88 89 89 89 89 88 88 88 88 88 88 88 89 89 90 91 91 91 91 90 90 90 89 89 88 88 88 88 87 87
54 54 55 56 57 58 59 60 61 62 63 63 63 63 62 62 62 62 62 63 63 63 64 64 64 64 65 65 66 66 67 68 69 69 70 71 72 73 74 75 77 78 79 81 82 83 84 85 86 87 88 88 88 88 88 88 89 88 88 87 87 87 87 87 86 86 86 87 87 88 88 89 89 88 87 87 86 86 86 85 84 84 84 84 83
55 55 55 56 56 57 58 58 59 60 60 61 61 60 60 60 60 61 61 62 63 63 64 64 64 65 65 66 66 67 68 70 71 71 73 74 75 76 77 79 80 81 82 84 85 85 86 86 87 88 89 89 89 89 88 88 88 88 87 86 86 86 86 85 85 85 85 85 85 85 86 86 86 86 85 84 83 82 82 81 81 81 80 80 80
58 58 58 58 58 59 59 59 60 60 61 61 61 61 61 62 62 63 63 65 66 66 66 67 67 67 68 69 69 70 71 73 74 75 76 78 79 80 81 82 83 84 86 86 87 87 87 88 88 89 89 89 89 89 88 88 88 87 87 86 85 85 85 84 83 83 83 83 83 83 84 84 83 83 82 81 80 79 79 78 78 77 77 77 77
61 61 61 61 62 62 62 62 63 63 63 64 64 64 65 65 66 67 67 68 69 70 70 71 71 72 72 73 74 75 76 77 78 79 80 82 83 84 85 86 86 87 88 88 88 89 89 89 89 90 90 90 89 89 88 87 87 86 86 86 85 84 84 83 82 82 82 82 82 82 82 81 81 80 79 78 78 77 76 76 75 75 75 74 74
63 64 64 64 65 65 66 66 66 67 67 68 68 69 69 70 71 71 72 73 74 74 75 75 76 76 77 77 78 79 80 81 82 83 84 85 86 87 88 88 89 90 90 90 90 90 90 90 90 90 90 89 89 88 87 86 86 85 85 85 84 83 83 83 82 81 81 81 80 80 80 79 79 78 77 76 75 75 74 74 74 73 73 72 72
65 66 66 67 68 68 68 69 69 70 71 71 72 73 74 74 75 76 76 77 77 78 79 79 79 80 80 81 82 82 83 84 85 86 87 88 89 90 90 91 92 92 92 92 91 91 90 90 90 90 89 89 88 87 86 86 85 84 84 83 83 83 83 82 82 81 80 80 79 78 78 78 77 76 75 74 73 73 72 72 71 71 71 71 70
68 68 69 69 70 70 71 71 72 73 74 74 75 76 77 78 78 79 80 81 81 82 82 83 83 84 84 85 85 86 87 88 89 89 90 91 92 92 93 94 93 93 93 92 91 91 90 90 90 89 89 88 88 87 86 85 84 84 83 83 83 82 82 82 81 80 79 78 77 77 76 76 75 74 72 71 71 70 69 69 69 69 69 69 69
71 72 72 72 73 73 74 74 75 76 76 77 78 79 80 80 81 82 83 84 84 85 86 87 87 87 88 88 89 90 90 91 91 92 93 93 93 94 94 94 93 93 92 91 90 89 89 89 89 89 88 88 88 87 86 85 84 84 83 83 82 82 82 81 80 79 78 77 76 75 74 74 72 71 70 69 68 68 67 66 66 67 67 68 67
75 75 75 76 76 77 77 78 78 78 79 79 80 81 82 82 83 84 85 85 86 87 88 89 89 89 90 90 91 91 92 92 92 93 93 93 94 94 94 93 93 92 91 90 89 89 88 89 89 89 88 88 88 87 86 85 84 84 83 82 82 81 80 80 79 78 76 75 74 73 72 71 69 68 67 66 65 65 65 65 65 65 66 66 66
79 79 79 79 80 81 81 81 82 82 82 82 83 83 84 85 85 85 86 87 87 88 89 90 90 90 91 91 91 92 92 92 93 93 93 94 94 94 93 93 92 92 91 90 89 89 89 89 88 88 88 88 88 87 86 85 84 84 83 82 81 80 79 78 77 76 74 73 72 71 69 68 67 65 64 63 63 63 63 63 63 63 64 64 65
83 83 83 83 83 84 85 85 85 86 86 86 87 87 87 88 88 89 89 89 90 91 91 92 92 92 93 93 93 93 94 94 94 94 94 95 94 94 94 93 93 92 91 90 89 89 89 89 88 88 88 88 88 87 86 85 84 83 82 81 79 78 77 75 74 73 72 71 69 68 67 65 64 63 61 61 61 61 61 62 62 62 62 62 64
86 86 86 86 87 87 88 88 88 89 89 89 90 90 91 91 92 92 92 93 93 94 94 95 95 95 95 95 95 95 95 95 95 95 95 95 95 95 95 94 93 92 91 90 89 89 89 88 88 88 88 88 87 86 85 84 83 82 81 79 77 76 74 72 71 70 69 68 66 65 64 62 61 60 59 59 59 59 59 59 60 61 61 61 62
88 88 88 89 89 90 90 90 91 91 91 92 92 92 93 94 94 95 95 95 96 96 97 97 97 97 97 97 96 96 96 96 95 95 96 96 96 96 95 94 93 92 91 90 89 89 88 88 87 88 87 86 85 84 83 82 81 80 79 77 75 72 71 69 68 67 66 64 63 62 60 59 58 58 57 57 56 56 57 58 59 59 60 60 61
90 90 90 91 91 91 92 92 92 92 93 93 93 94 94 95 95 96 96 97 97 98 98 98 98 98 98 97 97 97 97 97 96 96 96 96 96 96 95 94 93 92 91 89 89 88 87 87 87 87 86 84 83 82 81 80 79 77 75 73 71 69 67 66 65 64 63 61 60 58 57 56 55 55 55 55 54 55 56 56 57 57 57 58 59
91 92 93 93 93 94 94 94 94 94 94 94 94 95 95 95 96 96 97 97 98 98 98 98 98 97 97 97 97 97 97 97 96 96 96 96 95 95 94 93 92 91 89 88 87 86 86 86 86 85 84 82 81 79 78 77 75 73 71 70 68 66 64 63 62 61 60 58 56 55 54 53 53 53 53 53 53 54 54 54 54 54 55 56 58
92 92 93 94 95 96 96 96 96 96 96 96 96 96 96 97 97 97 97 97 97 97 97 97 97 97 97 97 97 97 97 96 96 96 95 95 95 94 93 92 91 89 88 86 85 85 84 85 84 82 80 79 77 76 74 73 71 69 67 66 64 63 62 60 59 58 57 55 53 52 51 51 52 51 51 52 52 53 52 52 52 53 54 55 56
91 92 92 93 94 95 96 96 97 97 97 97 97 97 97 97 97 97 97 97 97 97 97 97 97 97 97 97 97 96 96 96 96 96 95 95 94 93 92 91 89 88 86 84 83 82 82 81 79 77 76 74 73 71 70 68 66 65 63 62 61 60 59 58 56 55 53 50 49 49 49 50 50 50 50 51 51 51 50 50 51 52 52 53 54
90 90 90 91 91 92 93 94 95 95 95 96 96 96 96 96 96 95 95 95 95 95 95 95 95 96 95 95 95 95 95 94 94 94 94 93 91 90 88 87 86 84 82 80 78 77 77 75 73 72 71 70 68 66 65 64 62 61 60 59 59 58 57 55 53 50 48 47 47 47 47 48 49 49 49 49 49 49 49 50 50 51 51 52 52
88 88 88 88 88 89 90 90 91 91 92 92 92 92 92 92 92 92 92 91 91 92 92 92 92 92 92 92 92 91 91 91 91 90 90 88 87 85 83 82 81 78 76 74 73 72 71 70 69 68 66 65 63 62 61 60 59 58 57 56 56 55 54 52 48 46 45 45 45 45 46 46 47 47 47 46 46 47 48 49 49 49 49 50 50
85 85 85 85 85 85 85 86 86 87 87 87 88 88 88 88 87 87 87 86 87 87 88 88 87 87 88 88 88 87 87 86 86 86 84 83 81 79 78 77 75 73 71 70 68 67 66 65 64 63 62 60 60 59 58 57 56 55 54 53 53 52 50 47 45 44 43 43 43 44 44 44 44 45 45 45 45 45 46 47 46 46 47 47 47
82 82 82 82 82 82 82 82 82 82 83 83 82 82 82 82 82 82 82 82 82 83 83 84 84 83 84 84 84 83 83 83 82 81 80 78 76 75 74 73 71 69 68 66 64 63 62 61 60 59 58 57 57 56 55 54 53 52 51 50 49 47 45 43 42 42 41 41 42 42 42 42 42 42 43 43 43 44 44 45 44 44 44 44 44
80 80 80 80 80 80 80 80 79 79 79 78 78 78 78 77 78 78 78 79 79 80 80 81 80 80 80 80 80 80 80 80 79 78 76 74 72 71 70 69 67 65 64 62 61 60 59 58 56 56 55 55 54 53 51 50 49 49 48 46 44 42 41 40 40 40 39 40 40 39 40 40 40 40 41 41 41 41 42 42 42 41 40 40 40
78 78 77 77 77 77 77 76 76 76 75 75 75 74 74 74 74 75 76 77 77 78 78 78 78 77 76 76 76 77 77 76 75 74 72 69 68 67 66 64 63 62 60 59 57 56 55 54 53 53 53 52 51 49 48 47 46 45 43 41 40 39 38 38 38 38 37 37 37 37 38 38 38 38 39 39 39 39 39 39 39 38 38 37 36
76 76 75 75 74 74 74 74 73 72 72 72 71 71 70 71 71 72 73 73 74 74 74 74 74 73 72 72 72 73 73 72 71 69 67 65 64 64 62 60 59 58 57 55 54 53 52 51 51 50 49 48 47 45 45 44 43 41 39 38 37 37 36 36 36 35 35 35 35 36 36 36 36 36 36 37 37 36 36 35 35 35 35 35 34
76 75 74 73 73 73 72 71 71 70 69 68 67 67 67 67 68 68 69 69 69 69 69 69 69 68 68 67 68 68 68 67 65 64 62 60 60 59 58 56 55 54 53 51 50 49 48 48 48 47 45 44 43 42 41 40 38 36 35 35 35 35 35 34 33 33 33 33 33 33 34 34 33 33 34 34 34 33 32 31 31 31 31 33 34
75 74 73 72 72 71 71 70 69 68 67 66 65 65 65 65 65 65 65 65 65 65 65 65 65 64 64 63 63 63 62 62 60 58 56 55 55 54 53 52 51 50 48 47 46 46 45 45 44 42 41 40 39 38 37 35 34 33 33 33 33 33 33 32 31 30 31 31 32 32 31 31 31 31 31 31 30 29 28 28 28 28 29 30 32
73 72 71 71 70 70 69 68 67 66 66 65 64 64 63 63 63 63 63 63 62 62 62 62 62 61 60 59 59 58 57 56 54 52 50 51 51 49 48 47 46 45 44 43 43 42 42 41 39 38 37 36 36 34 33 32 31 31 31 31 31 31 30 30 29 29 29 29 30 29 29 29 29 28 28 26 25 25 25 25 26 26 27 29 31
71 71 70 69 68 68 67 67 66 65 64 64 63 63 62 62 62 61 61 61 60 60 60 60 60 59 57 56 55 54 52 51 48 46 46 47 46 44 43 42 41 40 40 40 39 39 38 37 36 35 34 33 32 30 29 29 29 29 30 30 29 29 28 28 27 27 27 28 27 27 26 26 26 25 24 22 21 22 22 23 24 25 27 30 32
70 69 69 68 67 67 66 65 65 64 63 63 62 61 61 60 60 60 59 58 58 58 58 58 57 56 54 53 51 50 48 46 44 43 43 43 42 40 39 38 37 37 37 37 36 35 34 34 33 31 30 29 28 27 27 27 27 28 28 28 27 26 26 26 26 26 25 25 24 24 24 23 22 21 19 18 19 20 21 22 23 25 27 30 33
69 68 68 67 66 66 65 64 63 62 62 61 60 60 59 58 58 57 57 56 56 56 56 56 55 54 52 50 49 47 45 43 41 40 40 40 39 37 36 35 35 34 34 34 33 32 32 31 29 28 27 26 26 25 25 25 26 26 26 26 25 24 24 24 24 24 23 22 21 21 21 20 18 16 16 16 17 18 20 22 24 26 28 31 34
68 67 67 66 66 65 64 63 62 61 60 59 59 58 57 57 56 56 55 55 54 54 54 54 53 52 50 48 47 45 42 40 38 38 38 38 36 34 33 33 33 32 32 31 31 30 29 27 26 25 24 24 24 23 24 24 24 24 24 24 23 22 22 22 22 21 20 19 19 18 17 16 14 13 13 14 15 17 20 22 26 29 32 34 35
68 67 67 66 65 64 63 62 61 60 59 58 57 57 56 55 55 54 54 53 53 52 52 52 51 49 48 46 44 42 40 37 36 36 36 35 33 32 32 32 31 31 30 30 29 28 26 24 23 23 22 22 22 22 23 23 23 23 22 21 20 20 21 20 19 17 17 17 16 15 13 11 10 10 11 13 15 18 21 25 29 32 34 36 38
67 67 66 65 65 64 63 62 61 60 59 58 57 56 55 54 54 53 52 52 51 51 50 50 49 47 46 44 42 40 38 36 35 35 34 33 31 31 31 30 29 29 29 28 27 25 24 22 22 21 21 21 21 22 22 22 22 21 20 19 18 19 18 17 15 14 15 14 13 10 9 8 8 8 10 12 15 19 23 27 30 33 35 37 39
65 65 65 64 63 63 62 61 60 59 58 57 56 55 54 53 52 51 51 50 50 49 48 48 47 45 44 42 40 38 36 34 34 34 32 31 30 30 29 28 28 27 27 26 25 23 22 21 20 19 19 20 21 21 21 21 20 19 18 17 17 16 15 13 12 12 12 10 8 6 5 5 6 7 10 13 17 21 25 28 30 32 34 36 39
62 62 62 62 61 61 60 59 58 58 57 56 55 54 53 52 50 50 49 48 48 47 47 46 45 43 41 40 38 36 34 34 33 33 31 30 29 29 28 27 26 26 25 24 23 22 21 20 19 18 19 20 21 21 21 20 19 17 16 15 14 13 11 10 10 10 8 6 4 3 3 4 5 8 12 16 20 24 26 28 30 32 34 36 38
59 59 59 59 59 58 58 57 56 56 55 54 53 52 51 50 48 48 47 46 46 45 44 44 42 41 39 38 36 34 33 33 33 32 30 29 28 27 26 26 26 25 24 23 22 21 20 19 18 18 19 20 20 20 20 18 16 15 14 13 11 8 8 8 9 6 3 2 2 3 3 4 6 11 15 19 22 25 27 28 30 32 34 35 36
Wind_Direction
269 269 269 269 269 269 269 269 269 270 270 271 271 271 271 271 272 272 272 273 273 273 274 274 274 275 275 275 276 276 277 277 277 277 278 278 278 278 278 278 278 278 278 278 278 278 279 279 279 279 279 279 279 279 279 279 279 279 279 279 279 279 279 279 278 278 278 278 277 277 277 277 277 277 277 277 277 277 276 276 276 276 276 275 275
270 270 270 269 269 269 269 269 269 269 270 270 270 270 271 271 271 271 272 272 272 273 273 273 274 274 275 275 275 276 276 277 277 277 277 277 278 278 278 278 278 278 278 278 278 278 279 279 279 279 279 279 279 279 279 279 279 280 280 280 280 279 279 279 279 278 278 278 278 278 277 277 277 277 277 277 277 277 277 276 276 276 276 276 276
270 270 270 270 270 270 270 270 269 269 269 269 270 270 270 271 271 271 271 272 272 272 273 273 274 274 274 275 275 276 276 276 277 277 277 277 277 277 277 278 278 278 278 278 278 279 279 279 280 280 280 280 280 280 280 280 280 280 280 280 280 280 279 279 279 279 279 278 278 278 278 278 277 277 277 277 277 277 276 276 276 277 277 277 277
270 270 270 270 270 270 270 270 270 270 269 270 270 270 270 270 271 271 271 272 272 272 273 273 273 274 274 275 275 275 276 276 276 277 277 277 277 277 277 278 278 278 278 279 279 279 279 280 280 280 281 281 281 281 281 281 281 281 281 280 280 280 280 280 280 279 279 279 279 278 278 278 277 277 277 277 277 277 277 277 277 277 277 277 277
272 272 271 270 270 270 270 270 270 270 270 270 270 270 270 271 271 271 271 272 272 272 273 273 274 274 275 275 275 276 276 276 276 277 277 277 277 277 278 278 278 279 279 279 280 280 280 281 281 281 281 282 282 282 282 281 281 281 281 281 281 281 280 280 280 280 279 279 278 278 278 278 277 277 277 277 277 277 278 278 278 278 278 278 278
273 272 271 270 270 269 269 269 269 270 270 270 270 270 270 271 271 272 272 272 273 273 274 274 274 275 275 275 276 276 276 276 276 277 277 277 277 278 278 279 279 279 280 280 280 281 281 281 282 282 282 282 282 282 282 282 282 282 282 282 281 281 281 280 280 279 279 279 278 278 278 278 278 278 278 279 279 279 279 279 280 280 280 280 280
272 271 270 270 270 270 270 270 270 270 270 270 270 271 271 271 272 272 273 273 273 274 274 275 275 275 276 276 276 276 276 277 277 277 277 278 278 278 279 279 280 280 281 281 281 282 282 282 283 283 283 283 283 283 283 283 283 282 282 282 281 281 280 280 280 279 279 279 279 280 280 280 280 280 280 280 280 281 281 281 281 281 281 281 281
272 271 271 270 270 270 270 270 270 270 271 271 271 272 272 272 272 273 273 274 274 275 275 276 276 276 277 277 277 277 278 278 278 278 279 279 279 280 280 281 281 282 282 282 282 283 283 283 283 283 283 283 283 283 283 283 283 283 282 282 281 281 281 281 280 281 281 281 281 281 281 281 281 281 281 281 282 282 282 282 282 282 282 282 282
272 271 271 271 270 270 270 270 270 270 271 271 271 272 272 273 273 274 274 275 275 276 276 277 277 278 278 278 278 279 279 279 280 280 280 280 281 281 282 282 282 283 283 283 283 283 284 284 284 284 284 284 284 284 283 283 283 283 283 282 282 282 282 282 282 283 283 283 283 283 283 283 283 283 283 283 283 283 283 283 283 283 283 283 283
272 271 271 271 270 270 270 270 270 270 271 271 271 272 272 273 273 274 275 275 276 277 277 278 278 279 279 279 280 280 280 280 281 281 281 281 282 282 283 283 283 283 283 283 284 284 284 284 284 284 284 284 284 284 284 283 283 283 283 283 283 283 284 284 285 285 285 285 285 285 284 284 284 284 284 284 284 284 284 284 284 284 284 283 283
274 273 272 272 271 271 270 271 271 271 271 272 272 272 273 274 274 275 276 276 277 277 278 278 279 279 280 280 280 280 281 281 281 281 281 282 283 283 283 283 283 283 283 284 284 284 284 284 284 284 284 284 284 284 284 284 284 284 284 285 285 286 286 287 287 287 287 286 286 286 285 285 285 285 285 285 285 285 285 285 285 284 284 284 283
276 275 274 273 272 272 272 272 272 273 273 273 273 274 274 275 275 276 276 277 278 278 278 279 279 279 280 280 280 280 280 281 281 281 282 283 283 283 283 283 283 283 284 284 284 284 285 284 284 284 284 284 284 284 284 284 285 285 286 287 287 288 288 288 288 288 288 288 287 287 286 286 286 286 286 286 286 286 286 285 285 285 284 284 283
278 277 275 274 274 274 274 274 274 274 274 274 275 275 275 276 276 277 277 277 278 278 278 279 279 279 280 280 280 280 280 281 281 282 282 283 283 283 284 284 284 284 284 284 285 284 284 284 284 284 284 284 284 284 285 286 287 288 288 289 289 290 290 290 290 289 289 288 288 288 287 287 287 286 286 286 286 286 286 285 285 285 284 284 283
281 279 278 277 276 276 275 275 275 275 275 275 275 275 276 276 277 277 278 278 278 278 279 279 279 280 280 280 280 281 281 282 282 283 284 284 284 284 284 284 284 284 284 284 284 283 283 284 284 284 284 285 285 286 287 288 289 290 290 291 291 291 291 291 290 290 290 289 289 288 288 287 287 287 287 287 286 286 286 286 285 285 284 284 284
284 283 282 281 281 280 279 278 277 277 276 276 276 276 276 277 277 278 278 279 279 279 279 279 280 280 280 281 282 282 283 284 284 285 285 285 285 284 283 283 283 283 283 283 283 283 283 284 284 285 285 286 287 288 289 290 291 291 291 292 292 292 292 292 291 291 290 290 289 288 288 288 288 287 287 287 287 287 286 286 285 285 285 284 284
286 285 285 285 284 283 282 281 280 279 278 278 277 277 277 277 277 278 278 279 279 279 280 280 280 281 281 282 283 283 284 284 284 284 284 284 283 282 282 282 282 282 282 282 282 283 284 284 285 286 287 288 289 290 291 291 292 292 293 293 293 293 293 292 292 291 291 290 290 289 289 289 289 288 288 288 288 288 287 287 287 286 285 285 284
286 286 286 285 285 284 283 282 281 280 279 279 278 278 277 277 277 278 278 278 279 279 279 279 280 280 281 281 281 282 282 282 282 282 282 282 281 281 281 281 282 282 282 283 283 284 285 286 287 288 289 290 291 291 292 293 293 294 294 294 294 294 294 293 293 292 291 291 291 290 290 290 290 290 289 289 289 289 289 288 288 287 287 286 285
286 286 285 285 284 284 283 283 282 281 281 280 279 279 279 278 278 278 278 278 278 278 279 279 279 279 279 279 280 280 280 280 280 280 280 281 281 281 282 282 282 283 283 284 285 286 287 288 289 290 290 291 292 293 293 294 294 295 295 295 295 295 294 294 293 293 292 292 292 292 292 292 291 291 291 291 291 291 290 289 288 288 287 286 286
285 285 285 285 284 284 284 284 284 283 283 282 282 281 280 280 279 279 279 279 279 279 279 279 279 279 279 279 279 279 280 280 280 280 281 281 282 282 282 283 283 284 285 286 287 288 289 289 290 291 291 292 293 294 294 294 295 295 295 296 296 296 295 295 294 294 294 294 294 293 293 293 293 293 293 293 292 292 291 290 289 288 287 287 286
284 284 284 284 284 284 284 284 284 284 284 283 283 282 281 281 280 280 280 279 279 279 280 279 280 280 280 280 280 280 280 281 281 281 282 282 283 283 284 284 285 285 286 287 288 289 290 290 291 292 292 293 293 294 294 295 295 296 296 296 297 296 296 296 296 296 296 295 295 295 294 294 294 294 294 294 293 293 292 291 290 289 289 288 287
283 283 283 283 283 283 283 283 283 283 283 282 282 282 281 281 281 281 281 280 280 280 280 280 280 280 280 281 281 281 281 282 282 282 283 283 284 284 285 285 286 286 287 288 289 290 290 291 292 292 293 293 293 294 294 295 296 296 297 297 297 297 297 297 297 297 297 297 296 296 296 296 295 295 295 294 294 293 292 291 290 290 289 289 288
283 282 282 282 282 282 281 281 281 281 281 281 281 281 281 281 281 281 281 281 281 281 281 281 281 281 281 281 281 282 282 282 283 283 284 284 284 285 285 286 286 287 288 289 289 290 291 292 292 292 293 293 294 294 295 296 297 297 298 298 298 298 298 298 298 298 298 297 297 296 296 296 296 296 295 294 293 292 292 291 290 290 290 289 289
282 281 281 281 281 281 280 280 280 279 279 279 280 280 280 280 280 280 281 281 281 281 281 281 281 281 281 282 282 282 282 282 283 283 284 284 284 285 285 286 286 287 288 289 290 290 291 291 292 292 293 294 294 295 296 297 298 298 299 299 299 299 298 298 298 298 298 297 297 297 297 297 296 296 295 294 293 292 292 291 291 291 291 290 290
280 280 280 280 280 279 279 279 279 279 278 279 279 279 279 279 279 279 280 280 280 280 280 280 280 281 281 281 281 281 282 282 282 283 283 284 284 284 285 286 286 287 288 289 289 290 291 291 292 293 294 294 295 296 297 298 298 299 299 299 299 299 299 299 298 298 298 298 298 297 297 296 296 295 294 294 293 293 292 292 292 292 292 292 293
279 279 278 278 278 278 278 278 278 278 278 278 278 278 279 279 279 279 279 279 279 279 279 280 280 280 280 280 281 281 281 282 282 283 283 283 284 284 285 286 287 287 288 289 289 290 291 291 292 293 294 295 296 297 297 298 299 299 299 299 299 299 298 298 298 298 298 298 298 297 296 296 295 294 294 293 293 293 293 293 293 293 294 295 295
279 279 278 278 278 277 277 278 278 278 278 278 278 279 279 279 279 279 279 279 279 280 280 280 280 280 281 281 281 281 282 282 282 283 283 284 284 285 286 287 287 288 288 289 290 291 291 292 293 294 294 295 296 297 298 298 299 299 299 298 298 298 298 298 298 298 297 297 297 296 296 295 295 294 294 293 293 293 294 294 295 295 296 296 296
280 280 280 279 279 278 278 278 277 277 277 278 278 278 278 278 278 279 279 279 279 279 279 280 280 280 280 281 281 281 282 282 283 283 284 285 285 286 287 287 288 288 289 290 290 291 292 292 293 294 294 295 296 297 298 298 299 298 298 298 298 298 298 298 297 297 297 296 296 295 295 294 294 293 293 294 294 295 295 296 296 296 297 298 299
281 281 280 280 280 279 279 279 278 278 278 278 278 278 278 278 278 278 278 279 279 279 279 279 280 280 281 281 282 282 283 283 284 285 285 286 286 287 287 288 288 288 289 290 290 291 291 292 293 293 294 295 296 297 297 298 298 297 297 297 297 297 297 297 297 296 296 296 295 294 294 293 293 294 294 294 295 295 295 295 296 297 299 301 302
281 281 281 280 280 280 280 279 279 279 279 279 279 279 279 279 279 279 279 279 280 280 280 281 281 282 282 283 284 284 285 285 285 286 286 286 287 287 287 287 288 288 289 289 290 291 292 292 293 293 294 295 296 296 297 297 296 296 296 296 296 296 296 296 296 295 295 294 294 293 293 293 294 294 294 295 295 295 294 295 298 300 303 303 303
281 281 281 281 281 281 281 281 281 281 280 280 280 280 280 280 280 280 280 280 281 281 281 282 282 283 284 284 285 285 285 285 285 286 286 286 286 286 286 287 287 288 289 290 291 292 292 293 293 293 294 294 295 295 295 295 295 295 296 296 295 295 295 295 294 294 293 293 293 293 293 293 293 294 294 294 294 295 296 299 301 303 303 302 302
281 281 281 281 281 281 282 282 282 282 281 281 281 281 281 281 281 281 281 282 282 282 283 283 284 284 285 285 285 285 285 285 285 286 286 286 286 286 286 287 288 289 290 291 292 292 292 292 292 293 294 294 294 294 294 294 294 294 294 294 294 294 294 293 293 292 292 292 293 293 293 293 293 293 293 294 295 297 299 302 303 302 302 302 303
282 281 281 281 281 281 281 281 281 281 281 281 281 281 282 282 282 282 283 283 283 284 284 284 284 285 285 285 285 285 285 285 286 286 286 286 286 286 287 288 289 290 291 292 292 292 292 292 292 293 293 293 293 293 293 293 293 293 293 293 293 293 292 291 291 291 291 292 292 292 292 292 293 293 294 296 298 301 303 304 303 303 304 304 304
283 283 282 282 282 281 281 281 281 281 281 281 282 282 282 282 283 283 283 283 284 284 284 284 285 285 285 285 285 285 285 285 285 285 286 286 287 288 289 290 290 291 292 292 292 292 292 292 292 292 292 292 292 292 292 292 292 292 292 292 291 291 290 289 290 290 291 291 291 291 292 293 293 295 297 299 302 304 304 304 304 305 306 306 306
285 284 284 283 283 282 282 282 282 282 282 282 283 283 283 283 283 284 284 284 284 285 285 285 284 284 284 284 284 284 285 285 285 286 287 287 288 290 291 291 292 292 293 293 293 292 292 292 291 291 291 291 292 292 291 291 291 291 291 290 289 288 288 289 290 290 290 290 291 291 292 294 295 297 300 302 303 304 304 304 305 306 307 308 310
286 285 285 285 284 284 283 283 283 283 283 283 284 284 284 285 285 285 285 285 285 285 284 284 284 284 284 284 285 285 286 286 287 287 288 289 290 292 292 292 293 293 293 293 292 292 291 291 290 290 291 291 291 290 290 290 290 290 289 288 287 287 288 289 290 290 290 290 291 293 294 296 297 300 302 303 304 304 304 305 307 309 310 312 315
287 286 286 286 286 285 285 285 285 285 285 285 285 285 286 286 286 285 285 285 284 284 284 284 284 285 285 286 287 287 288 288 288 289 290 291 292 293 293 293 293 293 293 292 291 290 290 290 290 290 290 290 289 288 289 289 289 287 286 285 286 287 288 288 289 289 290 291 292 294 296 297 299 301 303 304 304 305 306 307 310 313 315 316 317
287 286 286 286 286 286 286 286 286 286 286 286 286 285 285 285 285 285 285 284 284 284 284 285 285 286 286 287 287 287 288 288 288 289 290 291 292 292 292 292 292 292 291 291 290 289 289 289 290 289 288 287 287 288 288 287 286 284 284 285 286 286 287 287 288 289 291 292 294 295 297 299 301 302 304 305 306 308 309 311 314 316 317 317 318
287 287 287 286 286 286 286 286 285 285 285 285 285 285 285 285 284 284 284 284 284 284 284 285 285 285 286 286 286 286 286 287 288 289 290 291 291 291 291 291 291 290 290 289 289 289 289 289 288 287 286 286 286 286 285 284 283 283 284 285 285 284 285 287 288 290 292 293 294 296 298 300 302 304 306 307 308 310 312 315 317 318 317 318 322
289 288 288 287 287 287 286 286 286 286 285 285 285 285 284 284 283 283 283 283 283 284 284 284 284 285 285 285 285 285 286 286 287 288 290 290 290 290 290 290 289 289 289 289 289 288 288 287 285 284 284 285 284 283 282 281 281 282 283 283 283 284 285 287 289 290 292 294 295 297 299 302 304 306 308 309 311 314 316 318 318 319 321 324 327
291 290 290 289 289 289 288 288 288 287 287 286 286 285 284 284 283 283 283 283 284 284 284 285 285 285 285 284 285 285 286 287 287 288 289 289 288 288 288 288 288 287 288 288 287 286 285 284 283 283 283 282 281 279 279 280 281 281 281 282 283 284 286 287 289 291 293 294 296 299 301 304 307 309 309 311 314 317 319 318 320 323 326 328 329
291 291 291 290 290 290 289 289 289 288 288 287 286 286 285 285 285 285 285 285 285 286 286 285 285 285 285 285 285 285 286 286 287 288 288 287 286 286 286 286 286 286 286 286 285 283 282 281 281 281 280 278 277 277 278 279 279 280 280 281 283 284 286 288 289 291 294 296 298 301 304 308 309 310 311 315 318 319 319 321 326 329 330 329 330
291 291 290 290 290 289 289 289 289 288 288 288 287 287 287 286 287 286 286 286 286 286 286 286 285 285 285 285 285 285 285 286 287 287 286 285 284 284 284 284 284 284 283 282 281 280 279 279 278 277 276 276 276 276 277 277 278 279 280 281 282 284 286 288 290 293 295 297 300 305 308 310 310 312 316 319 320 320 323 328 331 332 332 334 337
290 290 290 290 289 289 289 289 288 288 288 288 288 287 287 287 287 286 286 286 286 285 285 285 285 285 285 285 285 285 285 286 286 286 284 283 283 283 283 282 282 282 281 279 278 278 277 276 275 275 274 274 275 275 276 276 277 278 279 280 282 284 286 289 292 295 296 299 304 308 309 310 312 317 320 322 323 326 330 332 332 335 340 343 345
290 290 290 290 289 289 289 288 288 287 287 287 287 286 286 286 285 285 285 285 284 285 285 285 285 285 286 286 286 286 286 286 286 285 283 282 282 282 282 281 280 279 278 277 277 276 275 274 274 274 274 274 274 274 274 275 275 276 277 279 281 283 287 291 293 295 299 304 308 309 309 312 318 322 324 327 330 332 332 332 336 343 348 352 352
290 290 289 289 289 288 288 287 287 287 286 286 285 285 285 285 284 284 284 284 284 284 285 285 285 286 286 287 287 287 286 286 285 284 282 281 281 281 280 279 278 277 276 276 275 274 273 273 273 273 273 272 272 272 272 273 273 274 275 278 281 285 289 291 293 298 304 308 308 307 310 317 323 327 330 335 335 333 334 339 347 352 355 357 358
289 289 289 288 288 288 287 287 287 286 286 286 286 285 285 285 285 285 285 285 285 285 285 285 286 287 287 287 287 287 286 286 285 282 280 280 280 279 278 277 276 275 275 274 273 272 273 273 272 271 270 270 269 269 269 269 270 272 274 278 282 286 289 291 295 302 307 306 305 309 317 324 330 335 339 339 336 337 345 353 358 1 1 1 0
288 288 288 288 287 287 287 287 287 286 287 286 286 286 286 285 285 285 285 285 285 285 285 286 286 286 287 287 287 286 286 285 283 281 279 279 279 277 276 274 274 274 272 272 271 272 272 271 270 268 267 267 266 266 266 266 268 270 274 278 283 286 288 292 300 305 304 302 306 316 325 333 340 345 342 340 344 352 0 5 7 7 6 4 2
287 287 287 287 286 286 286 286 286 286 286 286 286 286 285 285 285 285 285 285 284 284 285 285 285 285 286 286 285 285 285 283 281 279 278 278 277 275 274 273 272 271 271 270 270 270 269 268 267 265 264 263 263 262 263 264 266 270 274 279 281 283 288 296 302 301 298 301 313 327 338 347 351 348 345 350 1 8 12 13 12 11 9 6 5
286 285 285 285 285 285 285 285 285 285 284 284 284 284 284 284 284 284 284 283 283 283 283 283 284 284 284 284 284 283 282 281 279 278 277 277 275 273 272 272 271 269 268 268 267 266 265 263 262 261 260 259 259 259 260 262 265 269 273 276 279 283 291 298 296 292 296 307 325 344 358 3 358 352 358 9 16 18 18 16 15 13 11 9 7
284 284 284 284 283 283 283 283 283 283 283 283 283 283 283 283 283 283 282 282 281 281 281 282 282 282 282 282 281 281 279 277 276 275 275 274 273 272 271 269 267 265 265 264 263 262 260 258 256 255 255 254 254 256 258 261 265 267 270 273 277 285 292 290 284 286 299 323 353 17 26 16 7 9 18 24 24 23 20 18 17 15 13 11 8
283 283 283 283 282 282 282 282 282 282 282 282 282 283 283 282 282 281 281 280 280 280 280 280 280 280 280 279 279 278 276 274 273 273 272 271 270 269 267 265 263 262 261 259 258 256 254 252 250 249 249 249 251 253 256 259 262 265 267 271 278 284 279 270 272 285 314 20 64 65 51 33 27 30 32 31 28 25 22 19 18 16 14 12 8